This is the latest recevied weather packets stored in our database for station/object BV1EV-2. If no packets are shown the sender has not sent any weather packets the latest 10 day(s).
| Time | Temp. | Humidity | Pressure | Rain* | Wind** | Luminosity | Snow |
|---|---|---|---|---|---|---|---|
| 1778134668 | 31.11° C | 53% | 1008.3 hPa | - | - | - | - |
| 1778133468 | 31.11° C | 54% | 1008.4 hPa | - | - | - | - |
| 1778132268 | 30.56° C | 56% | 1008.6 hPa | - | - | - | - |
| 1778131067 | 30.56° C | 57% | 1008.7 hPa | - | - | - | - |
| 1778129868 | 30° C | 57% | 1008.9 hPa | - | - | - | - |
| 1778128668 | 30° C | 54% | 1009.3 hPa | - | - | - | - |
| 1778127468 | 29.44° C | 58% | 1009.5 hPa | - | - | - | - |
| 1778126267 | 28.33° C | 60% | 1009.8 hPa | - | - | - | - |
| 1778125067 | 27.78° C | 61% | 1010.1 hPa | - | - | - | - |
| 1778123868 | 27.22° C | 65% | 1010.4 hPa | - | - | - | - |
| 1778122667 | 26.11° C | 61% | 1010.6 hPa | - | - | - | - |
| 1778121468 | 26.11° C | 39% | 1010.7 hPa | - | - | - | - |
| 1778120268 | 25.56° C | 38% | 1011 hPa | - | - | - | - |
| 1778119068 | 25.56° C | 38% | 1011.2 hPa | - | - | - | - |
| 1778117868 | 26.11° C | 37% | 1011.4 hPa | - | - | - | - |
| 1778116667 | 26.11° C | 37% | 1011.6 hPa | - | - | - | - |
| 1778115467 | 26.67° C | 37% | 1011.6 hPa | - | - | - | - |
| 1778114267 | 26.67° C | 38% | 1011.6 hPa | - | - | - | - |
| 1778113067 | 27.22° C | 39% | 1011.7 hPa | - | - | - | - |
| 1778111868 | 27.22° C | 43% | 1011.8 hPa | - | - | - | - |
| 1778110668 | 27.22° C | 40% | 1011.8 hPa | - | - | - | - |
| 1778109468 | 27.78° C | 44% | 1011.8 hPa | - | - | - | - |
| 1778108269 | 28.33° C | 44% | 1011.8 hPa | - | - | - | - |
| 1778107068 | 28.33° C | 49% | 1011.5 hPa | - | - | - | - |
| 1778105867 | 28.33° C | 51% | 1011.3 hPa | - | - | - | - |
* Rain since midnight (hover to see other rain measurements)
** Current wind speed in m/s (hover to see current wind gust speed)